Home   Weather   Portugal   Lisbon   Past weeks
Flag for Portugal

Past Weather in Lisbon, Portugal — Yesterday and Last 2 Weeks

Currently: 59 °F. Passing clouds. (Weather station: Lisbon Portela Airport, Portugal). See more current weather

Past Weather in Lisbon — Graph

°F

Lisbon Temperature Yesterday

Maximum temperature yesterday: 72 °F (at 1:30 pm)
Minimum temperature yesterday: 54 °F (at 1:30 am)
Average temperature yesterday: 62 °F

High & Low Weather Summary for the Past Weeks

 TemperatureHumidityPressure
High73 °F (May 3, 3:00 pm)100% (Apr 21, 5:30 pm)30.12 "Hg (Apr 21, 5:30 pm)
Low46 °F (May 2, 3:00 am)25% (May 3, 3:00 pm)29.68 "Hg (Apr 26, 1:30 pm)
Average60 °F73%29.91 "Hg
* Reported Apr 21 2:00 am — May 6 2:00 am, Lisbon. Weather by CustomWeather, © 2021

Note: Actual official high and low records may vary slightly from our data, if they occured in-between our weather recording intervals... More about our weather records

Lisbon Weather History for the Previous 24 Hours

Scroll right to see more
 ConditionsComfort  
Time TempWeatherWind HumidityBarometerVisibility
2:00 am
Thu, May 6
57 °FPassing clouds.10 mph88%30.09 "HgN/A
1:30 am57 °FPassing clouds.6 mph88%30.09 "HgN/A
1:00 am57 °FPassing clouds.9 mph88%30.09 "HgN/A
12:30 am57 °FPassing clouds.13 mph88%30.09 "HgN/A
12:00 am59 °FPassing clouds.13 mph82%30.09 "HgN/A
11:30 pm
Wed, May 5
59 °FPassing clouds.14 mph82%30.09 "HgN/A
10:30 pm59 °FPassing clouds.13 mph82%30.09 "HgN/A
10:00 pm59 °FPassing clouds.12 mph82%30.09 "HgN/A
9:30 pm61 °FPassing clouds.17 mph72%30.09 "HgN/A
9:00 pm61 °FPassing clouds.17 mph72%30.07 "HgN/A
8:30 pm61 °FPassing clouds.17 mph72%30.07 "HgN/A
8:00 pm63 °FPassing clouds.16 mph73%30.07 "HgN/A
7:30 pm64 °FPassing clouds.20 mph68%30.07 "HgN/A
7:00 pm64 °FPassing clouds.17 mph68%30.04 "HgN/A
6:30 pm66 °FPassing clouds.16 mph64%30.07 "HgN/A
6:00 pm68 °FPassing clouds.16 mph60%30.07 "HgN/A
5:30 pm70 °FPassing clouds.17 mph57%30.04 "HgN/A
5:00 pm72 °FPassing clouds.17 mph53%30.04 "HgN/A
4:30 pm70 °FPassing clouds.17 mph53%30.04 "HgN/A
4:00 pm72 °FPassing clouds.17 mph50%30.07 "HgN/A
3:30 pm72 °FPassing clouds.17 mph50%30.07 "HgN/A
3:00 pm70 °FPassing clouds.16 mph53%30.07 "HgN/A
2:30 pm70 °FPassing clouds.20 mph53%30.07 "HgN/A
2:00 pm72 °FPassing clouds.14 mph50%30.07 "HgN/A
1:30 pm72 °FPassing clouds.13 mph47%30.07 "HgN/A
1:00 pm70 °FPassing clouds.12 mph50%30.07 "HgN/A
12:30 pm70 °FPassing clouds.13 mph53%30.09 "HgN/A
12:00 pm68 °FPassing clouds.13 mph53%30.09 "HgN/A
11:30 am66 °FPassing clouds.16 mph60%30.09 "HgN/A
10:30 am64 °FPassing clouds.15 mph64%30.09 "HgN/A
10:00 am63 °FPassing clouds.17 mph68%30.09 "HgN/A
9:30 am61 °FPassing clouds.20 mph68%30.09 "HgN/A
9:00 am61 °FPassing clouds.16 mph72%30.09 "HgN/A
8:30 am59 °FPassing clouds.16 mph77%30.09 "HgN/A
8:00 am57 °FPassing clouds.14 mph82%30.09 "HgN/A
7:30 am57 °FPassing clouds.13 mph82%30.07 "HgN/A
7:00 am55 °FPassing clouds.16 mph88%30.07 "HgN/A
6:30 am55 °FPassing clouds.16 mph88%30.07 "HgN/A
6:00 am55 °FPassing clouds.12 mph88%30.07 "HgN/A
5:30 am55 °FPassing clouds.17 mph88%30.07 "HgN/A
5:00 am55 °FPassing clouds.17 mph88%30.07 "HgN/A
4:30 am55 °FPassing clouds.9 mph88%30.07 "HgN/A
4:00 am55 °FPassing clouds.15 mph82%30.07 "HgN/A
3:30 am55 °FPassing clouds.14 mph88%30.07 "HgN/A
3:00 am55 °FPassing clouds.15 mph82%30.07 "HgN/A
Weather by CustomWeather, © 2021

See weather overview